ATHENA-FIDUS

Last updated on Tue Oct 15 2024 00:02:39 GMT+0000 (Coordinated Universal Time)

1 39509U 14006B 24288.48651819 .00000152 00000+0 00000+0 0 9999 2 39509 0.0246 118.0998 0001205 95.6670 22.7143 1.00271061 38959
UTC large
Height (km)
Speed (km/s)
/
Latitude / Longitude
Inclination (degrees)
Orbital Period (minutes)
Azimuth
Elevation
Range (km)
Doppler Factor

Next 0 passes for location: London (51.5072 / 0.1276)

Sorry there are no passes over London.